Zurück zum Katalog

FENGYUN 1C DEB

LostPO
NORAD 38145·DEBRIS·🇨🇳 China

Gestartet May 10, 1999 von Taiyuan Satellite Launch Center

Loading…

Nächste Überflüge (nächste 24 Stunden)

TLE

VeraltetSource: Space-Track

Epoche: Sep 4, 2022, 09:45 UTC

1 38145U 99025EQS 22247.40663019  .00001008  00000-0  79285-3 0  9995
2 38145  97.6255  98.1846 0423511  42.6244 320.6960 13.58298929733950

Verfolge FENGYUN 1C DEB in Echtzeit mit AllMySat

Download on the App Store